| time (UTC) | temp F | wind direction | speed MPH | gust MPH | rain 1hr in | rain 24hr in | rain mn in | humidity % | barometer mb |
| 20260507081529 | 49 | 298 | 0.0 | 7.0 | 0.00 | 0.33 | 0.08 | 86 | 1005.6 |
| 20260507081009 | 49 | 319 | 1.0 | 7.0 | 0.00 | 0.33 | 0.08 | 86 | 1005.8 |
| 20260507080511 | 49 | 274 | 2.0 | 4.0 | 0.00 | 0.33 | 0.08 | 87 | 1005.6 |
| 20260507080023 | 49 | 309 | 0.0 | 1.0 | 0.00 | 0.33 | 0.08 | 88 | 1006.0 |
| 20260507075509 | 49 | 261 | 0.0 | 1.0 | 0.00 | 0.33 | 0.08 | 89 | 1006.1 |
| 20260507075009 | 49 | 254 | 0.0 | 3.0 | 0.00 | 0.33 | 0.08 | 89 | 1005.8 |
| 20260507074525 | 49 | 233 | 0.0 | 3.0 | 0.00 | 0.33 | 0.08 | 90 | 1005.9 |
| 20260507074011 | 49 | 279 | 0.0 | 3.0 | 0.00 | 0.33 | 0.08 | 90 | 1005.6 |
| 20260507073509 | 49 | 277 | 0.0 | 2.0 | 0.00 | 0.33 | 0.08 | 91 | 1005.6 |
| 20260507073025 | 49 | 297 | 0.0 | 1.0 | 0.00 | 0.33 | 0.08 | 92 | 1005.7 |
| 20260507072507 | 49 | 4 | 0.0 | 1.0 | 0.00 | 0.33 | 0.08 | 92 | 1005.6 |
| 20260507072006 | 49 | 292 | 0.0 | 2.0 | 0.00 | 0.33 | 0.08 | 92 | 1005.6 |
| 20260507071515 | 49 | 292 | 0.0 | 2.0 | 0.00 | 0.33 | 0.08 | 92 | 1005.4 |
| 20260507071007 | 49 | 4 | 0.0 | 1.0 | 0.00 | 0.33 | 0.08 | 93 | 1005.2 |
| 20260507070512 | 49 | 4 | 0.0 | 1.0 | 0.00 | 0.33 | 0.08 | 93 | 1005.5 |
| 20260507070018 | 49 | 4 | 0.0 | 1.0 | 0.00 | 0.33 | 0.08 | 93 | 1005.4 |
| 20260507065514 | 49 | 326 | 0.0 | 0.0 | 0.00 | 0.33 | 0.08 | 93 | 1005.3 |
| 20260507065009 | 49 | 326 | 0.0 | 0.0 | 0.00 | 0.33 | 0.08 | 93 | 1005.4 |
| 20260507064522 | 49 | 326 | 0.0 | 0.0 | 0.00 | 0.33 | 0.08 | 93 | 1005.3 |
| 20260507064012 | 50 | 326 | 0.0 | 0.0 | 0.00 | 0.33 | 0.08 | 93 | 1005.2 |
| 20260507063511 | 49 | 326 | 0.0 | 0.0 | 0.00 | 0.33 | 0.08 | 93 | 1005.0 |
| 20260507063026 | 50 | 326 | 0.0 | 0.0 | 0.00 | 0.33 | 0.08 | 93 | 1004.9 |
| 20260507062508 | 50 | 326 | 0.0 | 0.0 | 0.00 | 0.33 | 0.08 | 93 | 1005.0 |
| 20260507062015 | 50 | 326 | 0.0 | 0.0 | 0.00 | 0.33 | 0.08 | 92 | 1005.1 |
| 20260507061529 | 50 | 326 | 0.0 | 0.0 | 0.00 | 0.33 | 0.08 | 92 | 1005.0 |
| 20260507061006 | 50 | 326 | 0.0 | 0.0 | 0.00 | 0.33 | 0.08 | 92 | 1004.7 |
| 20260507060507 | 50 | 326 | 0.0 | 1.0 | 0.01 | 0.33 | 0.08 | 92 | 1004.7 |
| 20260507060018 | 50 | 326 | 0.0 | 1.0 | 0.01 | 0.33 | 0.08 | 92 | 1004.8 |
| 20260507055503 | 50 | 345 | 0.0 | 1.0 | 0.01 | 0.33 | 0.08 | 92 | 1005.0 |
| 20260507055003 | 50 | 292 | 0.0 | 1.0 | 0.01 | 0.33 | 0.08 | 92 | 1004.9 |
| 20260507054504 | 51 | 251 | 0.0 | 1.0 | 0.01 | 0.33 | 0.08 | 91 | 1004.7 |
| 20260507054004 | 51 | 331 | 0.0 | 1.0 | 0.01 | 0.33 | 0.08 | 91 | 1004.6 |
| 20260507053502 | 51 | 329 | 0.0 | 4.0 | 0.01 | 0.33 | 0.08 | 90 | 1004.6 |
| 20260507053006 | 51 | 350 | 0.0 | 4.0 | 0.01 | 0.33 | 0.08 | 90 | 1004.9 |
| 20260507052503 | 51 | 261 | 2.0 | 4.0 | 0.01 | 0.33 | 0.08 | 89 | 1004.8 |
| 20260507052004 | 51 | 280 | 1.0 | 5.0 | 0.02 | 0.33 | 0.08 | 89 | 1004.9 |
| 20260507051508 | 51 | 354 | 1.0 | 6.0 | 0.05 | 0.33 | 0.08 | 89 | 1005.0 |
| 20260507051004 | 52 | 303 | 3.0 | 7.0 | 0.06 | 0.33 | 0.08 | 88 | 1004.7 |
| 20260507050506 | 52 | 286 | 4.0 | 7.0 | 0.06 | 0.32 | 0.07 | 88 | 1004.5 |
| 20260507050013 | 53 | 5 | 3.0 | 7.0 | 0.07 | 0.32 | 0.07 | 89 | 1004.8 |
| 20260507045510 | 53 | 255 | 3.0 | 7.0 | 0.07 | 0.32 | 0.07 | 90 | 1004.6 |
| 20260507045010 | 54 | 314 | 2.0 | 6.0 | 0.07 | 0.32 | 0.07 | 91 | 1004.6 |
| 20260507044519 | 54 | 318 | 3.0 | 5.0 | 0.07 | 0.32 | 0.07 | 92 | 1004.2 |
| 20260507044002 | 54 | 312 | 1.0 | 4.0 | 0.07 | 0.32 | 0.07 | 95 | 1004.1 |
| 20260507043502 | 54 | 12 | 2.0 | 4.0 | 0.07 | 0.32 | 0.07 | 95 | 1003.9 |
| 20260507043004 | 54 | 222 | 0.0 | 1.0 | 0.07 | 0.32 | 0.07 | 94 | 1003.9 |
| 20260507042502 | 54 | 222 | 0.0 | 4.0 | 0.07 | 0.32 | 0.07 | 94 | 1003.9 |
| 20260507042003 | 54 | 222 | 0.0 | 4.0 | 0.06 | 0.31 | 0.06 | 95 | 1003.8 |
| 20260507041515 | 54 | 212 | 2.0 | 4.0 | 0.03 | 0.28 | 0.03 | 95 | 1004.0 |
| 20260507041003 | 54 | 238 | 2.0 | 6.0 | 0.02 | 0.27 | 0.02 | 96 | 1004.0 |
| 20260507040506 | 53 | 222 | 2.0 | 6.0 | 0.02 | 0.26 | 0.01 | 95 | 1004.0 |
| 20260507040011 | 53 | 215 | 2.0 | 5.0 | 0.01 | 0.25 | 0.00 | 95 | 1004.2 |
| 20260507035506 | 53 | 242 | 3.0 | 5.0 | 0.01 | 0.25 | 0.25 | 95 | 1003.9 |
| 20260507035009 | 53 | 200 | 1.0 | 4.0 | 0.01 | 0.25 | 0.25 | 95 | 1003.8 |
| 20260507034516 | 53 | 200 | 1.0 | 4.0 | 0.01 | 0.25 | 0.25 | 95 | 1003.8 |
| 20260507034006 | 53 | 245 | 1.0 | 3.0 | 0.01 | 0.25 | 0.25 | 95 | 1003.8 |
| 20260507033507 | 53 | 210 | 1.0 | 3.0 | 0.01 | 0.25 | 0.25 | 95 | 1003.6 |
| 20260507033020 | 53 | 191 | 0.0 | 3.0 | 0.01 | 0.25 | 0.25 | 95 | 1003.6 |
| 20260507032504 | 53 | 222 | 1.0 | 3.0 | 0.01 | 0.25 | 0.25 | 95 | 1003.6 |
| 20260507032002 | 53 | 229 | 0.0 | 3.0 | 0.01 | 0.25 | 0.25 | 95 | 1003.6 |
| 20260507031504 | 53 | 191 | 1.0 | 4.0 | 0.01 | 0.25 | 0.25 | 95 | 1003.6 |
| 20260507031005 | 52 | 242 | 0.0 | 5.0 | 0.01 | 0.25 | 0.25 | 95 | 1003.6 |
| 20260507030502 | 52 | 247 | 1.0 | 5.0 | 0.00 | 0.24 | 0.24 | 95 | 1003.6 |
| 20260507030009 | 52 | 203 | 2.0 | 5.0 | 0.00 | 0.24 | 0.24 | 95 | 1003.7 |
| 20260507025508 | 52 | 215 | 1.0 | 3.0 | 0.00 | 0.24 | 0.24 | 95 | 1003.6 |
| 20260507025005 | 52 | 229 | 1.0 | 4.0 | 0.00 | 0.24 | 0.24 | 95 | 1003.6 |
| 20260507024510 | 52 | 167 | 0.0 | 6.0 | 0.00 | 0.24 | 0.24 | 95 | 1003.7 |
| 20260507024011 | 52 | 194 | 1.0 | 6.0 | 0.00 | 0.24 | 0.24 | 95 | 1003.6 |
| 20260507023507 | 52 | 173 | 0.0 | 2.0 | 0.00 | 0.24 | 0.24 | 95 | 1003.7 |
| 20260507023015 | 52 | 213 | 1.0 | 3.0 | 0.00 | 0.24 | 0.24 | 95 | 1003.9 |
| 20260507022509 | 52 | 193 | 0.0 | 3.0 | 0.00 | 0.24 | 0.24 | 95 | 1004.0 |
| 20260507022011 | 52 | 247 | 2.0 | 4.0 | 0.00 | 0.24 | 0.24 | 95 | 1004.0 |
| 20260507021521 | 52 | 190 | 1.0 | 4.0 | 0.01 | 0.24 | 0.24 | 95 | 1004.1 |
| 20260507021004 | 52 | 262 | 1.0 | 5.0 | 0.01 | 0.24 | 0.24 | 95 | 1004.1 |
| 20260507020503 | 52 | 195 | 1.0 | 5.0 | 0.02 | 0.24 | 0.24 | 95 | 1004.2 |
| 20260507020005 | 52 | 229 | 1.0 | 3.0 | 0.02 | 0.24 | 0.24 | 95 | 1004.3 |
| 20260507015502 | 52 | 53 | 1.0 | 5.0 | 0.02 | 0.24 | 0.24 | 95 | 1004.4 |
| 20260507015002 | 52 | 184 | 1.0 | 5.0 | 0.02 | 0.24 | 0.24 | 95 | 1004.2 |
| 20260507014523 | 52 | 184 | 2.0 | 6.0 | 0.02 | 0.24 | 0.24 | 95 | 1004.3 |
| 20260507014006 | 52 | 176 | 2.0 | 8.0 | 0.02 | 0.24 | 0.24 | 95 | 1004.4 |
| 20260507013506 | 52 | 205 | 3.0 | 8.0 | 0.02 | 0.24 | 0.24 | 95 | 1004.4 |
| 20260507013031 | 52 | 227 | 2.0 | 4.0 | 0.02 | 0.24 | 0.24 | 95 | 1004.4 |
| 20260507012506 | 52 | 226 | 1.0 | 4.0 | 0.02 | 0.24 | 0.24 | 95 | 1004.4 |
| 20260507012013 | 52 | 226 | 2.0 | 4.0 | 0.02 | 0.24 | 0.24 | 95 | 1004.4 |
| 20260507011532 | 52 | 245 | 1.0 | 5.0 | 0.01 | 0.23 | 0.23 | 94 | 1004.5 |
| 20260507011010 | 52 | 201 | 1.0 | 5.0 | 0.01 | 0.23 | 0.23 | 94 | 1004.5 |
| 20260507010508 | 52 | 194 | 2.0 | 10.0 | 0.00 | 0.22 | 0.22 | 94 | 1004.6 |
| 20260507010024 | 52 | 90 | 3.0 | 10.0 | 0.00 | 0.22 | 0.22 | 94 | 1004.5 |
| 20260507005502 | 52 | 245 | 2.0 | 9.0 | 0.00 | 0.22 | 0.22 | 94 | 1004.7 |
| 20260507005004 | 52 | 243 | 4.0 | 9.0 | 0.00 | 0.22 | 0.22 | 94 | 1004.6 |
| 20260507004511 | 52 | 274 | 2.0 | 8.0 | 0.00 | 0.22 | 0.22 | 94 | 1004.6 |
| 20260507004006 | 52 | 140 | 1.0 | 7.0 | 0.00 | 0.22 | 0.22 | 94 | 1004.6 |
| 20260507003506 | 52 | 143 | 4.0 | 7.0 | 0.00 | 0.22 | 0.22 | 94 | 1004.6 |
| 20260507003012 | 52 | 88 | 2.0 | 7.0 | 0.00 | 0.22 | 0.22 | 94 | 1004.7 |
| 20260507002505 | 52 | 194 | 3.0 | 8.0 | 0.00 | 0.22 | 0.22 | 94 | 1004.6 |
| 20260507002007 | 52 | 172 | 3.0 | 8.0 | 0.00 | 0.22 | 0.22 | 93 | 1004.7 |
| 20260507001514 | 52 | 223 | 2.0 | 8.0 | 0.00 | 0.22 | 0.22 | 93 | 1004.7 |
| 20260507001006 | 52 | 166 | 3.0 | 9.0 | 0.00 | 0.22 | 0.22 | 93 | 1004.7 |
| 20260507000516 | 52 | 153 | 2.0 | 11.0 | 0.00 | 0.22 | 0.22 | 93 | 1004.8 |
| 20260507000028 | 52 | 156 | 3.0 | 11.0 | 0.00 | 0.22 | 0.22 | 93 | 1004.8 |
| 20260506235508 | 52 | 255 | 3.0 | 13.0 | 0.00 | 0.22 | 0.22 | 93 | 1004.8 |
| 20260506235009 | 52 | 226 | 5.0 | 13.0 | 0.00 | 0.22 | 0.22 | 93 | 1004.7 |
| 20260506234524 | 52 | 53 | 3.0 | 9.0 | 0.00 | 0.22 | 0.22 | 93 | 1004.7 |
| 20260506234004 | 52 | 235 | 2.0 | 9.0 | 0.00 | 0.22 | 0.22 | 93 | 1004.7 |
| 20260506233506 | 52 | 112 | 2.0 | 9.0 | 0.00 | 0.22 | 0.22 | 93 | 1004.8 |
| 20260506233008 | 52 | 241 | 3.0 | 7.0 | 0.00 | 0.22 | 0.22 | 93 | 1004.9 |
| 20260506232503 | 52 | 220 | 2.0 | 12.0 | 0.00 | 0.22 | 0.22 | 93 | 1005.0 |
| 20260506232007 | 52 | 209 | 3.0 | 12.0 | 0.00 | 0.22 | 0.22 | 93 | 1005.1 |
| 20260506231514 | 52 | 227 | 3.0 | 9.0 | 0.00 | 0.22 | 0.22 | 92 | 1005.0 |
| 20260506231007 | 53 | 189 | 2.0 | 9.0 | 0.00 | 0.22 | 0.22 | 92 | 1005.0 |
| 20260506230509 | 53 | 183 | 2.0 | 9.0 | 0.00 | 0.22 | 0.22 | 92 | 1005.2 |
| 20260506230019 | 53 | 217 | 3.0 | 10.0 | 0.00 | 0.22 | 0.22 | 92 | 1005.1 |
| 20260506225509 | 53 | 166 | 2.0 | 10.0 | 0.00 | 0.22 | 0.22 | 92 | 1005.0 |
| 20260506225006 | 53 | 293 | 2.0 | 15.0 | 0.01 | 0.22 | 0.22 | 92 | 1005.2 |
| 20260506224522 | 53 | 359 | 3.0 | 15.0 | 0.01 | 0.22 | 0.22 | 92 | 1005.2 |
| 20260506224007 | 53 | 236 | 4.0 | 9.0 | 0.01 | 0.22 | 0.22 | 91 | 1005.2 |
| 20260506223510 | 53 | 215 | 3.0 | 9.0 | 0.02 | 0.22 | 0.22 | 92 | 1005.4 |
| 20260506223025 | 53 | 152 | 4.0 | 11.0 | 0.02 | 0.22 | 0.22 | 92 | 1005.3 |
| 20260506222504 | 53 | 330 | 3.0 | 13.0 | 0.03 | 0.22 | 0.22 | 92 | 1005.3 |
| 20260506222008 | 53 | 179 | 4.0 | 13.0 | 0.03 | 0.22 | 0.22 | 92 | 1005.4 |
| 20260506221509 | 53 | 271 | 3.0 | 10.0 | 0.04 | 0.22 | 0.22 | 92 | 1005.4 |
| 20260506221009 | 53 | 177 | 3.0 | 13.0 | 0.04 | 0.22 | 0.22 | 92 | 1005.5 |
| 20260506220506 | 54 | 158 | 3.0 | 13.0 | 0.05 | 0.22 | 0.22 | 92 | 1005.5 |
| 20260506220016 | 54 | 226 | 2.0 | 10.0 | 0.05 | 0.22 | 0.22 | 92 | 1005.7 |
| 20260506215512 | 54 | 209 | 4.0 | 10.0 | 0.06 | 0.22 | 0.22 | 92 | 1005.7 |
| 20260506215011 | 53 | 200 | 1.0 | 8.0 | 0.06 | 0.21 | 0.21 | 92 | 1005.7 |
| 20260506214520 | 53 | 192 | 3.0 | 8.0 | 0.07 | 0.21 | 0.21 | 91 | 1005.7 |
| 20260506214008 | 54 | 206 | 2.0 | 10.0 | 0.08 | 0.21 | 0.21 | 91 | 1005.6 |
| 20260506213508 | 54 | 146 | 3.0 | 10.0 | 0.07 | 0.20 | 0.20 | 91 | 1005.6 |
| 20260506213022 | 54 | 189 | 3.0 | 10.0 | 0.07 | 0.20 | 0.20 | 91 | 1005.8 |
| 20260506212510 | 54 | 247 | 2.0 | 10.0 | 0.07 | 0.19 | 0.19 | 91 | 1005.8 |
| 20260506212011 | 54 | 146 | 2.0 | 10.0 | 0.07 | 0.19 | 0.19 | 90 | 1005.9 |
| 20260506211525 | 54 | 186 | 2.0 | 10.0 | 0.06 | 0.18 | 0.18 | 90 | 1005.8 |
| 20260506211005 | 54 | 251 | 3.0 | 14.0 | 0.06 | 0.18 | 0.18 | 90 | 1006.1 |
| 20260506210505 | 54 | 249 | 3.0 | 14.0 | 0.05 | 0.17 | 0.17 | 89 | 1006.0 |
| 20260506210009 | 54 | 193 | 4.0 | 14.0 | 0.06 | 0.17 | 0.17 | 89 | 1006.0 |
| 20260506205506 | 55 | 217 | 3.0 | 11.0 | 0.05 | 0.16 | 0.16 | 89 | 1006.0 |
| 20260506205007 | 55 | 142 | 2.0 | 7.0 | 0.04 | 0.15 | 0.15 | 89 | 1005.9 |
| 20260506204518 | 55 | 211 | 1.0 | 6.0 | 0.04 | 0.14 | 0.14 | 89 | 1005.9 |
| 20260506204007 | 55 | 49 | 1.0 | 7.0 | 0.06 | 0.13 | 0.13 | 88 | 1005.9 |
| 20260506203507 | 55 | 103 | 2.0 | 7.0 | 0.08 | 0.13 | 0.13 | 88 | 1006.0 |
| 20260506203022 | 55 | 290 | 2.0 | 6.0 | 0.09 | 0.13 | 0.13 | 89 | 1006.0 |
| 20260506202508 | 55 | 154 | 2.0 | 6.0 | 0.08 | 0.12 | 0.12 | 89 | 1005.8 |
| 20260506202013 | 56 | 218 | 1.0 | 4.0 | 0.09 | 0.12 | 0.12 | 89 | 1005.9 |
| 20260506201522 | 56 | 240 | 1.0 | 9.0 | 0.09 | 0.12 | 0.12 | 89 | 1005.8 |
| 20260506201008 | 56 | 200 | 2.0 | 9.0 | 0.10 | 0.12 | 0.12 | 88 | 1005.9 |
| 20260506200507 | 56 | 267 | 1.0 | 7.0 | 0.10 | 0.12 | 0.12 | 89 | 1006.4 |
| 20260506200026 | 56 | 262 | 0.0 | 7.0 | 0.10 | 0.11 | 0.11 | 89 | 1006.0 |
| 20260506195508 | 56 | 77 | 0.0 | 5.0 | 0.10 | 0.11 | 0.11 | 89 | 1005.9 |
| 20260506195009 | 56 | 219 | 1.0 | 5.0 | 0.11 | 0.11 | 0.11 | 89 | 1006.4 |
| 20260506194514 | 56 | 217 | 1.0 | 4.0 | 0.10 | 0.10 | 0.10 | 89 | 1006.7 |
| 20260506194009 | 56 | 113 | 0.0 | 3.0 | 0.07 | 0.07 | 0.07 | 87 | 1006.2 |
| 20260506193509 | 56 | 102 | 1.0 | 4.0 | 0.05 | 0.05 | 0.05 | 87 | 1006.8 |
| 20260506193015 | 56 | 202 | 0.0 | 4.0 | 0.04 | 0.04 | 0.04 | 87 | 1006.6 |
| 20260506192509 | 55 | 204 | 1.0 | 4.0 | 0.04 | 0.04 | 0.04 | 87 | 1006.5 |
| 20260506192011 | 55 | 191 | 0.0 | 2.0 | 0.03 | 0.03 | 0.03 | 87 | 1006.4 |
| 20260506191524 | 55 | 269 | 0.0 | 4.0 | 0.03 | 0.03 | 0.03 | 85 | 1006.4 |
| 20260506191011 | 55 | 233 | 1.0 | 4.0 | 0.02 | 0.02 | 0.02 | 85 | 1006.5 |
| 20260506190510 | 55 | 221 | 1.0 | 6.0 | 0.02 | 0.02 | 0.02 | 84 | 1006.8 |
| 20260506190027 | 55 | 107 | 2.0 | 7.0 | 0.01 | 0.01 | 0.01 | 83 | 1006.8 |
| 20260506185510 | 55 | 200 | 3.0 | 7.0 | 0.01 | 0.01 | 0.01 | 83 | 1006.7 |
| 20260506185007 | 55 | 266 | 2.0 | 11.0 | 0.00 | 0.00 | 0.00 | 82 | 1006.7 |
| 20260506184526 | 56 | 249 | 4.0 | 11.0 | 0.00 | 0.00 | 0.00 | 82 | 1006.6 |
| 20260506184007 | 56 | 98 | 3.0 | 9.0 | 0.00 | 0.00 | 0.00 | 81 | 1006.5 |
| 20260506183512 | 56 | 233 | 3.0 | 11.0 | 0.00 | 0.00 | 0.00 | 80 | 1006.4 |
| 20260506183014 | 57 | 214 | 3.0 | 12.0 | 0.00 | 0.00 | 0.00 | 78 | 1006.5 |
| 20260506182506 | 57 | 181 | 3.0 | 12.0 | 0.00 | 0.00 | 0.00 | 77 | 1006.3 |
| 20260506182011 | 57 | 231 | 4.0 | 13.0 | 0.00 | 0.00 | 0.00 | 77 | 1006.3 |
| 20260506181529 | 57 | 186 | 4.0 | 13.0 | 0.00 | 0.00 | 0.00 | 76 | 1006.5 |
| 20260506181007 | 57 | 229 | 5.0 | 11.0 | 0.00 | 0.00 | 0.00 | 76 | 1006.4 |
| 20260506180519 | 57 | 119 | 3.0 | 11.0 | 0.00 | 0.00 | 0.00 | 76 | 1006.5 |
| 20260506180032 | 58 | 230 | 4.0 | 10.0 | 0.00 | 0.00 | 0.00 | 75 | 1006.6 |
| 20260506175515 | 58 | 288 | 4.0 | 11.0 | 0.00 | 0.00 | 0.00 | 75 | 1006.5 |
| 20260506175011 | 58 | 210 | 5.0 | 11.0 | 0.00 | 0.00 | 0.00 | 75 | 1006.5 |
| 20260506174526 | 58 | 115 | 3.0 | 11.0 | 0.00 | 0.00 | 0.00 | 75 | 1006.6 |
| 20260506174012 | 58 | 245 | 2.0 | 11.0 | 0.00 | 0.00 | 0.00 | 75 | 1006.7 |
| 20260506173507 | 58 | 214 | 3.0 | 7.0 | 0.00 | 0.00 | 0.00 | 75 | 1006.8 |
| 20260506173028 | 58 | 237 | 2.0 | 7.0 | 0.00 | 0.00 | 0.00 | 74 | 1006.9 |
| 20260506172507 | 59 | 205 | 2.0 | 11.0 | 0.00 | 0.00 | 0.00 | 75 | 1006.9 |
| 20260506172012 | 59 | 221 | 2.0 | 11.0 | 0.00 | 0.00 | 0.00 | 74 | 1007.0 |
| 20260506171534 | 59 | 151 | 2.0 | 8.0 | 0.00 | 0.00 | 0.00 | 74 | 1007.0 |
| 20260506171008 | 60 | 15 | 3.0 | 8.0 | 0.00 | 0.00 | 0.00 | 73 | 1007.0 |
| 20260506170509 | 60 | 243 | 1.0 | 7.0 | 0.00 | 0.00 | 0.00 | 73 | 1007.0 |
| 20260506170019 | 61 | 177 | 2.0 | 4.0 | 0.00 | 0.00 | 0.00 | 73 | 1007.1 |
| 20260506165512 | 61 | 128 | 1.0 | 6.0 | 0.00 | 0.00 | 0.00 | 73 | 1007.2 |
| 20260506165008 | 61 | 226 | 2.0 | 6.0 | 0.00 | 0.00 | 0.00 | 73 | 1007.2 |
| 20260506164524 | 61 | 221 | 1.0 | 6.0 | 0.00 | 0.00 | 0.00 | 73 | 1007.4 |
| 20260506164011 | 61 | 172 | 1.0 | 4.0 | 0.00 | 0.00 | 0.00 | 73 | 1007.4 |
| 20260506163511 | 61 | 174 | 1.0 | 4.0 | 0.00 | 0.00 | 0.00 | 72 | 1007.6 |
| 20260506163031 | 61 | 308 | 0.0 | 4.0 | 0.00 | 0.00 | 0.00 | 72 | 1007.6 |
| 20260506162510 | 62 | 236 | 0.0 | 4.0 | 0.00 | 0.00 | 0.00 | 72 | 1007.8 |
| 20260506162015 | 62 | 250 | 0.0 | 6.0 | 0.00 | 0.00 | 0.00 | 73 | 1007.9 |
| 20260506161520 | 62 | 242 | 1.0 | 6.0 | 0.00 | 0.00 | 0.00 | 72 | 1008.0 |
| 20260506161007 | 62 | 342 | 1.0 | 9.0 | 0.00 | 0.00 | 0.00 | 72 | 1008.1 |
| 20260506160508 | 62 | 77 | 1.0 | 9.0 | 0.00 | 0.00 | 0.00 | 73 | 1008.3 |
| 20260506160018 | 61 | 158 | 1.0 | 7.0 | 0.00 | 0.00 | 0.00 | 73 | 1008.4 |
| 20260506155511 | 61 | 203 | 2.0 | 7.0 | 0.00 | 0.00 | 0.00 | 73 | 1008.3 |
| 20260506155010 | 61 | 248 | 1.0 | 6.0 | 0.00 | 0.00 | 0.00 | 74 | 1008.5 |
| 20260506154526 | 61 | 163 | 1.0 | 7.0 | 0.00 | 0.00 | 0.00 | 74 | 1008.6 |
| 20260506154011 | 60 | 359 | 2.0 | 7.0 | 0.00 | 0.00 | 0.00 | 74 | 1008.3 |
| 20260506153514 | 60 | 234 | 1.0 | 5.0 | 0.00 | 0.00 | 0.00 | 76 | 1008.5 |
| 20260506153024 | 60 | 224 | 1.0 | 7.0 | 0.00 | 0.00 | 0.00 | 75 | 1008.4 |
| 20260506152513 | 60 | 129 | 2.0 | 7.0 | 0.00 | 0.00 | 0.00 | 75 | 1008.6 |
| 20260506152013 | 60 | 243 | 2.0 | 6.0 | 0.00 | 0.00 | 0.00 | 75 | 1008.7 |
| 20260506151528 | 60 | 240 | 1.0 | 6.0 | 0.00 | 0.00 | 0.00 | 74 | 1008.6 |
| 20260506151012 | 61 | 212 | 0.0 | 5.0 | 0.00 | 0.00 | 0.00 | 75 | 1008.5 |
| 20260506150511 | 60 | 214 | 0.0 | 6.0 | 0.00 | 0.00 | 0.00 | 75 | 1008.5 |
| 20260506150022 | 60 | 261 | 1.0 | 6.0 | 0.00 | 0.00 | 0.00 | 75 | 1008.5 |
| 20260506145508 | 60 | 180 | 1.0 | 8.0 | 0.00 | 0.00 | 0.00 | 75 | 1008.3 |
| 20260506145008 | 61 | 243 | 4.0 | 8.0 | 0.00 | 0.00 | 0.00 | 74 | 1008.2 |
| 20260506144521 | 61 | 188 | 1.0 | 5.0 | 0.00 | 0.00 | 0.00 | 74 | 1008.2 |
| 20260506144009 | 61 | 204 | 1.0 | 5.0 | 0.00 | 0.00 | 0.00 | 74 | 1008.1 |
| 20260506143509 | 60 | 107 | 1.0 | 4.0 | 0.00 | 0.00 | 0.00 | 74 | 1008.1 |
| 20260506143023 | 60 | 236 | 1.0 | 4.0 | 0.00 | 0.00 | 0.00 | 75 | 1008.1 |
| 20260506142512 | 60 | 141 | 0.0 | 4.0 | 0.00 | 0.00 | 0.00 | 75 | 1008.2 |
| 20260506142013 | 60 | 175 | 1.0 | 4.0 | 0.00 | 0.00 | 0.00 | 75 | 1008.3 |
| 20260506141526 | 60 | 145 | 0.0 | 3.0 | 0.00 | 0.00 | 0.00 | 76 | 1008.5 |
| 20260506141011 | 59 | 113 | 0.0 | 3.0 | 0.00 | 0.00 | 0.00 | 76 | 1008.5 |
| 20260506140507 | 60 | 133 | 1.0 | 3.0 | 0.00 | 0.00 | 0.00 | 75 | 1008.6 |
| 20260506140026 | 60 | 99 | 0.0 | 2.0 | 0.00 | 0.00 | 0.00 | 75 | 1008.7 |
| 20260506135509 | 59 | 30 | 0.0 | 1.0 | 0.00 | 0.00 | 0.00 | 76 | 1008.7 |
| 20260506135013 | 59 | 165 | 0.0 | 3.0 | 0.00 | 0.00 | 0.00 | 77 | 1008.7 |
| 20260506134543 | 58 | 231 | 0.0 | 3.0 | 0.00 | 0.00 | 0.00 | 77 | 1008.7 |
| 20260506134012 | 58 | 189 | 1.0 | 4.0 | 0.00 | 0.00 | 0.00 | 77 | 1008.7 |
| 20260506133511 | 58 | 181 | 1.0 | 6.0 | 0.00 | 0.00 | 0.00 | 77 | 1008.7 |
| 20260506133022 | 58 | 153 | 0.0 | 6.0 | 0.00 | 0.00 | 0.00 | 77 | 1008.8 |
| 20260506132511 | 59 | 89 | 0.0 | 2.0 | 0.00 | 0.00 | 0.00 | 76 | 1008.6 |
| 20260506132011 | 59 | 150 | 0.0 | 4.0 | 0.00 | 0.00 | 0.00 | 76 | 1008.5 |
| 20260506131528 | 59 | 235 | 0.0 | 4.0 | 0.00 | 0.00 | 0.00 | 75 | 1008.5 |
| 20260506131008 | 59 | 128 | 0.0 | 3.0 | 0.00 | 0.00 | 0.00 | 76 | 1008.5 |
| 20260506130519 | 59 | 103 | 1.0 | 3.0 | 0.00 | 0.00 | 0.00 | 76 | 1008.5 |
| 20260506130024 | 59 | 138 | 0.0 | 3.0 | 0.00 | 0.00 | 0.00 | 75 | 1008.5 |
| 20260506125512 | 60 | 88 | 0.0 | 2.0 | 0.00 | 0.00 | 0.00 | 75 | 1008.5 |
| 20260506125008 | 59 | 145 | 0.0 | 3.0 | 0.00 | 0.00 | 0.00 | 75 | 1008.6 |
| 20260506124526 | 59 | 116 | 0.0 | 3.0 | 0.00 | 0.00 | 0.00 | 76 | 1008.6 |
| 20260506124010 | 59 | 120 | 0.0 | 1.0 | 0.00 | 0.00 | 0.00 | 76 | 1008.6 |
| 20260506123512 | 58 | 99 | 0.0 | 1.0 | 0.00 | 0.00 | 0.00 | 77 | 1008.6 |
| 20260506123020 | 58 | 120 | 0.0 | 1.0 | 0.00 | 0.00 | 0.00 | 77 | 1008.6 |
| 20260506122511 | 58 | 136 | 0.0 | 1.0 | 0.00 | 0.00 | 0.00 | 77 | 1008.6 |
| 20260506122007 | 57 | 209 | 0.0 | 1.0 | 0.00 | 0.00 | 0.00 | 77 | 1008.9 |
| 20260506121522 | 57 | 228 | 0.0 | 2.0 | 0.00 | 0.00 | 0.00 | 78 | 1008.8 |
| 20260506121009 | 57 | 155 | 0.0 | 3.0 | 0.00 | 0.00 | 0.00 | 78 | 1008.8 |
| 20260506120510 | 57 | 108 | 1.0 | 3.0 | 0.00 | 0.00 | 0.00 | 78 | 1009.0 |
| 20260506120025 | 57 | 161 | 0.0 | 2.0 | 0.00 | 0.00 | 0.00 | 78 | 1008.9 |
| 20260506115509 | 57 | 168 | 0.0 | 2.0 | 0.00 | 0.00 | 0.00 | 78 | 1008.9 |
| 20260506115014 | 56 | 118 | 0.0 | 1.0 | 0.00 | 0.00 | 0.00 | 78 | 1009.2 |
| 20260506114534 | 56 | 119 | 0.0 | 1.0 | 0.00 | 0.00 | 0.00 | 78 | 1009.2 |
| 20260506114011 | 56 | 117 | 0.0 | 1.0 | 0.00 | 0.00 | 0.00 | 79 | 1009.2 |
| 20260506113511 | 56 | 198 | 0.0 | 2.0 | 0.00 | 0.00 | 0.00 | 79 | 1009.3 |
| 20260506113032 | 56 | 209 | 1.0 | 2.0 | 0.00 | 0.00 | 0.00 | 79 | 1009.4 |
| 20260506112509 | 55 | 184 | 0.0 | 1.0 | 0.00 | 0.00 | 0.00 | 80 | 1009.1 |
| 20260506112015 | 55 | 221 | 0.0 | 0.0 | 0.00 | 0.00 | 0.00 | 80 | 1009.1 |
| 20260506111522 | 55 | 230 | 0.0 | 0.0 | 0.00 | 0.00 | 0.00 | 81 | 1009.2 |
| 20260506111009 | 54 | 230 | 0.0 | 0.0 | 0.00 | 0.00 | 0.00 | 81 | 1009.4 |
| 20260506110509 | 54 | 230 | 0.0 | 0.0 | 0.00 | 0.00 | 0.00 | 81 | 1009.2 |
| 20260506110026 | 54 | 230 | 0.0 | 0.0 | 0.00 | 0.00 | 0.00 | 81 | 1009.3 |
| 20260506105510 | 54 | 230 | 0.0 | 0.0 | 0.00 | 0.00 | 0.00 | 82 | 1009.2 |
| 20260506105010 | 53 | 230 | 0.0 | 0.0 | 0.00 | 0.00 | 0.00 | 82 | 1009.2 |
| 20260506104526 | 53 | 243 | 0.0 | 1.0 | 0.00 | 0.00 | 0.00 | 82 | 1009.2 |
| 20260506104009 | 53 | 243 | 0.0 | 1.0 | 0.00 | 0.00 | 0.00 | 82 | 1009.3 |
| 20260506103510 | 53 | 215 | 0.0 | 1.0 | 0.00 | 0.00 | 0.00 | 82 | 1009.0 |
| 20260506103028 | 53 | 138 | 0.0 | 1.0 | 0.00 | 0.00 | 0.00 | 82 | 1008.9 |
| 20260506102510 | 53 | 204 | 0.0 | 0.0 | 0.00 | 0.00 | 0.00 | 82 | 1008.8 |
| 20260506102013 | 53 | 204 | 0.0 | 0.0 | 0.00 | 0.00 | 0.00 | 82 | 1009.0 |
| 20260506101526 | 53 | 204 | 0.0 | 0.0 | 0.00 | 0.00 | 0.00 | 82 | 1009.1 |
| 20260506101007 | 53 | 203 | 0.0 | 0.0 | 0.00 | 0.00 | 0.00 | 83 | 1008.8 |
| 20260506100510 | 52 | 204 | 0.0 | 0.0 | 0.00 | 0.00 | 0.00 | 83 | 1008.7 |
| 20260506100031 | 52 | 204 | 0.0 | 0.0 | 0.00 | 0.00 | 0.00 | 84 | 1008.7 |
| 20260506095507 | 52 | 204 | 0.0 | 0.0 | 0.00 | 0.00 | 0.00 | 84 | 1008.9 |
| 20260506095012 | 52 | 203 | 0.0 | 0.0 | 0.00 | 0.00 | 0.00 | 83 | 1008.9 |
| 20260506094514 | 52 | 204 | 0.0 | 0.0 | 0.00 | 0.00 | 0.00 | 83 | 1008.8 |
| 20260506094005 | 52 | 204 | 0.0 | 0.0 | 0.00 | 0.00 | 0.00 | 83 | 1008.7 |
| 20260506093505 | 52 | 204 | 0.0 | 0.0 | 0.00 | 0.00 | 0.00 | 82 | 1008.6 |
| 20260506093009 | 52 | 204 | 0.0 | 2.0 | 0.00 | 0.00 | 0.00 | 82 | 1008.7 |
| 20260506092507 | 53 | 204 | 0.0 | 2.0 | 0.00 | 0.00 | 0.00 | 81 | 1008.8 |
| 20260506092007 | 53 | 204 | 0.0 | 2.0 | 0.00 | 0.00 | 0.00 | 81 | 1008.6 |
| 20260506091511 | 53 | 201 | 0.0 | 1.0 | 0.00 | 0.00 | 0.00 | 81 | 1008.7 |
| 20260506091006 | 53 | 209 | 0.0 | 1.0 | 0.00 | 0.00 | 0.00 | 81 | 1008.7 |
| 20260506090505 | 53 | 224 | 0.0 | 2.0 | 0.00 | 0.00 | 0.00 | 81 | 1008.8 |
| 20260506090006 | 53 | 199 | 0.0 | 3.0 | 0.00 | 0.00 | 0.00 | 80 | 1008.7 |
| 20260506085501 | 53 | 205 | 0.0 | 3.0 | 0.00 | 0.00 | 0.00 | 80 | 1008.8 |
| 20260506085003 | 53 | 196 | 0.0 | 1.0 | 0.00 | 0.00 | 0.00 | 80 | 1008.6 |
| 20260506084504 | 53 | 192 | 0.0 | 1.0 | 0.00 | 0.00 | 0.00 | 80 | 1008.6 |
| 20260506084004 | 53 | 179 | 0.0 | 1.0 | 0.00 | 0.00 | 0.00 | 79 | 1008.5 |
| 20260506083504 | 53 | 199 | 0.0 | 1.0 | 0.00 | 0.00 | 0.00 | 79 | 1008.4 |
| 20260506083007 | 53 | 209 | 0.0 | 1.0 | 0.00 | 0.00 | 0.00 | 79 | 1008.4 |
| 20260506082506 | 53 | 128 | 0.0 | 1.0 | 0.00 | 0.00 | 0.00 | 79 | 1008.5 |
| 20260506082006 | 53 | 247 | 0.0 | 1.0 | 0.00 | 0.00 | 0.00 | 79 | 1008.5 |